Location: Eagle Observatory
(42.5300°N, 88.2800°W)
Time: 23:54:19
(UTC-06:00)

Hubble Space Telescope - Visible Passes

Search period start: 19 December 2014 00:00
Search period end: 29 December 2014 00:00
Orbit: 545 x 549 km, 28.5° (Epoch: 19 December)

Date Brightness Start Highest point End Pass type
(mag) Time Alt. Az. Time Alt. Az. Time Alt. Az.
19 Dec 3.5 17:15:05 10° SSW 17:16:29 12° S 17:17:54 10° SSE visible
20 Dec 3.6 17:07:24 10° SSW 17:08:35 11° S 17:09:47 10° SSE visible
21 Dec 3.8 17:00:01 10° SSW 17:00:40 10° S 17:01:20 10° S visible
